Location: Bayshore Village Mobile Home Park
(26.6945°N, 81.8642°W)
Time: 22:55:29
(UTC+00:00)

Cosmos 1140 Rocket - Pass Details

Date: 17 June 2021
Orbit: 744 x 767 km, 74.1° (Epoch: 05 August)

Event Time Altitude Azimuth Distance (km) Brightness Sun altitude
Rises 01:28:27 0° 352° (N) 3,235 7.4 -13.4°
Reaches altitude 10° 01:30:55 10° 358° (N) 2,305 6.5 -13.9°
Maximum altitude 01:35:58 48° 72° (ENE) 990 3.8 -14.8°
Enters shadow 01:38:53 24° 136° (SE) 1,557 4.5 -15.3°
